SVOLVAER/HELLE current weather conditions

sailwx.info

Wind from 050 at 14 knots

Air temperature -0.0° C
Visibility: greater than 5.4 NM
Dewpoint -6.0° C

Last reported at 2019-Dec-08 19:50 UTC.
Time now 2019-Dec-08 20:35 UTC

Location: N 68°15' E 014°40'.
View on Google Maps.

See reports from other nearby stations

  
Tides and Currents Weather Stations Pressure Air Temp Water Temp Dewpoint Dewpoint Depression Visibility Wind Speed Wind Dir Waves Ship Positions
date/time (UTC)wind fromknots sea level pressurealtimeterstation pressurevisibilityair tempwater tempwave heightnotes
2019-Dec-08 19:50 050 14 5.4-0.0
2019-Dec-08 18:50 060 14 5.4-0.0
2019-Dec-08 18:20 060 13 5.4-0.0
2019-Dec-08 17:50 060 13 5.4-1.0
2019-Dec-08 17:20 050 13 5.4-1.0
2019-Dec-08 16:50 060 17 5.4-0.0
2019-Dec-08 16:20 050 17 5.4-0.0
2019-Dec-08 15:50 050 15 5.4-0.0
2019-Dec-08 13:20 050 13 5.4-0.0
2019-Dec-08 12:50 030 8 5.4-0.0
2019-Dec-08 12:20 010 9 5.4-0.0
2019-Dec-08 11:50 360 9 5.4-0.0
2019-Dec-08 11:20 010 8 5.4-0.0
2019-Dec-07 12:50 360 6 5.4 2.0 Showers in the vicinity.
2019-Dec-07 12:20 350 5 5.4 2.0 Showers in the vicinity.
2019-Dec-07 11:50 360 7 5.4 2.0 Showers in the vicinity.
2019-Dec-07 11:20 010 4 5.4 2.0 Light rain showers.
2019-Dec-07 10:50 360 2 5.4 2.0 Light rain showers.
2019-Dec-07 09:50 330 2 5.4 2.0 Showers in the vicinity.
2019-Dec-07 09:20 340 4 5.4 2.0
2019-Dec-07 08:50 340 6 5.4 1.0 Showers in the vicinity.
2019-Dec-07 07:50 030 8 5.4 2.0 Showers in the vicinity.
2019-Dec-07 07:20 020 7 5.4 2.0 Light rain showers.
2019-Dec-06 20:50 140 15 4.9 3.0 Rain showers.
2019-Dec-06 20:20 140 18 5.4 3.0 Light rain showers.